When you browse on this site, cookies collect data to enhance your experience and personalize the content and advertising you see.
Visit our Privacy Policy to learn more. By continuing to use the site, you agree to this use of cookies and data.

Hourly Weather Fredericton

Today, 12 August, Wednesday

Time Temperature Precipitation Wind Pressure Humidity
00:00 +20°C° 0.2 mm 2 mps 757 mmHg 95%
01:00 +20°C° 0.2 mm 2 mps 756 mmHg 96%
02:00 +20°C° 0.2 mm 2 mps 756 mmHg 98%
03:00 +20°C° 0.6 mm 2 mps 756 mmHg 98%
04:00 +20°C° 0.6 mm 2 mps 757 mmHg 98%
05:00 +20°C° 0.6 mm 2 mps 757 mmHg 98%
06:00 +21°C° 0 mm 2 mps 757 mmHg 98%
07:00 +21°C° 0 mm 2 mps 757 mmHg 97%
08:00 +22°C° 0 mm 3 mps 757 mmHg 96%
09:00 +24°C° 0 mm 3 mps 757 mmHg 91%
10:00 +25°C° 0 mm 2 mps 757 mmHg 87%
11:00 +27°C° 0 mm 2 mps 757 mmHg 82%
12:00 +27°C° 0.5 mm 3 mps 757 mmHg 82%
13:00 +28°C° 0.5 mm 3 mps 757 mmHg 82%
14:00 +29°C° 0.5 mm 3 mps 757 mmHg 81%
15:00 +29°C° 0.4 mm 3 mps 757 mmHg 77%
16:00 +30°C° 0.4 mm 2 mps 757 mmHg 73%
17:00 +30°C° 0.4 mm 2 mps 757 mmHg 68%
18:00 +28°C° 0.1 mm 2 mps 757 mmHg 73%
19:00 +26°C° 0.1 mm 2 mps 758 mmHg 79%
20:00 +24°C° 0.1 mm 2 mps 758 mmHg 84%
21:00 +23°C° 0 mm 1 mps 759 mmHg 84%
22:00 +22°C° 0 mm 1 mps 759 mmHg 85%
23:00 +21°C° 0 mm 1 mps 759 mmHg 85%

Tomorrow, 13 August, Thursday

Time Temperature Precipitation Wind Pressure Humidity
00:00 +20°C° 0 mm 1 mps 759 mmHg 85%
01:00 +20°C° 0 mm 1 mps 759 mmHg 86%
02:00 +19°C° 0 mm 1 mps 759 mmHg 86%
03:00 +19°C° 0 mm 1 mps 760 mmHg 87%
04:00 +18°C° 0 mm 1 mps 760 mmHg 89%
05:00 +18°C° 0 mm 1 mps 760 mmHg 90%
06:00 +20°C° 0 mm 1 mps 760 mmHg 85%
07:00 +21°C° 0 mm 1 mps 760 mmHg 80%
08:00 +23°C° 0 mm 1 mps 761 mmHg 75%
09:00 +25°C° 0 mm 1 mps 761 mmHg 66%
10:00 +28°C° 0 mm 1 mps 760 mmHg 56%
11:00 +30°C° 0 mm 1 mps 760 mmHg 47%
12:00 +30°C° 0 mm 2 mps 760 mmHg 45%
13:00 +31°C° 0 mm 2 mps 760 mmHg 42%
14:00 +31°C° 0 mm 3 mps 760 mmHg 39%
15:00 +30°C° 0 mm 3 mps 760 mmHg 42%
16:00 +30°C° 0 mm 3 mps 760 mmHg 45%
17:00 +29°C° 0 mm 3 mps 760 mmHg 48%
18:00 +27°C° 0 mm 2 mps 760 mmHg 56%
19:00 +25°C° 0 mm 2 mps 760 mmHg 64%
20:00 +23°C° 0 mm 2 mps 760 mmHg 73%
21:00 +21°C° 0 mm 2 mps 760 mmHg 73%
22:00 +21°C° 0 mm 1 mps 760 mmHg 73%
23:00 +21°C° 0 mm 1 mps 761 mmHg 73%

Day after tomorrow, 14 August, Friday

Time Temperature Precipitation Wind Pressure Humidity
00:00 +20°C° 0 mm 1 mps 761 mmHg 74%
01:00 +19°C° 0 mm 1 mps 761 mmHg 75%
02:00 +18°C° 0 mm 1 mps 761 mmHg 76%
03:00 +18°C° 0 mm 1 mps 761 mmHg 76%
04:00 +16°C° 0 mm 2 mps 761 mmHg 77%
05:00 +15°C° 0 mm 2 mps 761 mmHg 77%
06:00 +17°C° 0 mm 2 mps 761 mmHg 73%
07:00 +18°C° 0 mm 2 mps 761 mmHg 69%
08:00 +20°C° 0 mm 2 mps 761 mmHg 65%
09:00 +23°C° 0 mm 2 mps 761 mmHg 58%
10:00 +25°C° 0 mm 3 mps 761 mmHg 52%
11:00 +27°C° 0 mm 3 mps 761 mmHg 45%
12:00 +27°C° 0 mm 3 mps 761 mmHg 47%
13:00 +27°C° 0 mm 2 mps 761 mmHg 48%
14:00 +27°C° 0 mm 2 mps 761 mmHg 49%
15:00 +26°C° 0 mm 2 mps 761 mmHg 53%
16:00 +26°C° 0 mm 2 mps 761 mmHg 56%
17:00 +25°C° 0 mm 2 mps 761 mmHg 60%
18:00 +24°C° 0 mm 2 mps 761 mmHg 68%
19:00 +21°C° 0 mm 2 mps 762 mmHg 76%
20:00 +19°C° 0 mm 2 mps 762 mmHg 85%
21:00 +18°C° 0 mm 2 mps 762 mmHg 88%
22:00 +16°C° 0 mm 2 mps 763 mmHg 92%
23:00 +15°C° 0 mm 2 mps 763 mmHg 96%

15 August, Saturday

Time Temperature Precipitation Wind Pressure Humidity
00:00 +15°C° 0 mm 2 mps 763 mmHg 97%
01:00 +14°C° 0 mm 2 mps 763 mmHg 98%
02:00 +14°C° 0 mm 2 mps 763 mmHg 98%
03:00 +14°C° 0 mm 2 mps 763 mmHg 98%
04:00 +13°C° 0 mm 2 mps 764 mmHg 98%
05:00 +13°C° 0 mm 2 mps 764 mmHg 98%
06:00 +14°C° 0 mm 2 mps 764 mmHg 93%
07:00 +16°C° 0 mm 2 mps 764 mmHg 88%
08:00 +17°C° 0 mm 3 mps 764 mmHg 84%
09:00 +19°C° 0 mm 3 mps 764 mmHg 74%
10:00 +20°C° 0 mm 3 mps 764 mmHg 65%
11:00 +22°C° 0 mm 3 mps 764 mmHg 56%
12:00 +24°C° 0 mm 3 mps 763 mmHg 53%
13:00 +25°C° 0 mm 3 mps 763 mmHg 50%
14:00 +26°C° 0 mm 3 mps 763 mmHg 47%
15:00 +25°C° 0 mm 3 mps 763 mmHg 49%
16:00 +25°C° 0 mm 3 mps 763 mmHg 51%
17:00 +25°C° 0 mm 3 mps 762 mmHg 53%
18:00 +23°C° 0 mm 2 mps 763 mmHg 63%
19:00 +19°C° 0 mm 2 mps 763 mmHg 73%
20:00 +17°C° 0 mm 2 mps 763 mmHg 83%
21:00 +16°C° 0 mm 2 mps 763 mmHg 87%
22:00 +15°C° 0 mm 1 mps 764 mmHg 92%
23:00 +14°C° 0 mm 1 mps 764 mmHg 97%

16 August, Sunday

Time Temperature Precipitation Wind Pressure Humidity
00:00 +14°C° 0 mm 1 mps 764 mmHg 97%
01:00 +13°C° 0 mm 1 mps 764 mmHg 98%
02:00 +13°C° 0 mm 1 mps 764 mmHg 98%
03:00 +13°C° 0 mm 1 mps 764 mmHg 98%
04:00 +12°C° 0 mm 1 mps 764 mmHg 98%
05:00 +12°C° 0 mm 1 mps 763 mmHg 98%
06:00 +14°C° 0 mm 1 mps 763 mmHg 96%
07:00 +15°C° 0 mm 1 mps 763 mmHg 93%
08:00 +16°C° 0 mm 1 mps 763 mmHg 90%
09:00 +19°C° 0 mm 1 mps 763 mmHg 82%
10:00 +21°C° 0 mm 1 mps 763 mmHg 74%
11:00 +23°C° 0 mm 1 mps 763 mmHg 66%
12:00 +23°C° 0 mm 1 mps 762 mmHg 63%
13:00 +24°C° 0 mm 1 mps 762 mmHg 61%
14:00 +25°C° 0 mm 1 mps 761 mmHg 58%
15:00 +25°C° 0 mm 1 mps 761 mmHg 58%
16:00 +25°C° 0 mm 1 mps 761 mmHg 58%
17:00 +25°C° 0 mm 2 mps 760 mmHg 58%
18:00 +23°C° 0 mm 1 mps 760 mmHg 66%
19:00 +21°C° 0 mm 1 mps 760 mmHg 74%
20:00 +19°C° 0 mm 1 mps 760 mmHg 82%
21:00 +18°C° 0 mm 1 mps 760 mmHg 87%
22:00 +16°C° 0 mm 1 mps 760 mmHg 92%
23:00 +15°C° 0 mm 1 mps 760 mmHg 97%

17 August, Monday

Time Temperature Precipitation Wind Pressure Humidity
00:00 +15°C° 0 mm 1 mps 760 mmHg 97%
01:00 +15°C° 0 mm 1 mps 760 mmHg 98%
02:00 +15°C° 0 mm 1 mps 760 mmHg 98%
03:00 +15°C° 0 mm 1 mps 759 mmHg 98%
04:00 +15°C° 0 mm 1 mps 759 mmHg 98%
05:00 +15°C° 0 mm 1 mps 759 mmHg 98%
06:00 +16°C° 0 mm 1 mps 759 mmHg 93%
07:00 +17°C° 0 mm 2 mps 759 mmHg 88%
08:00 +18°C° 0 mm 2 mps 759 mmHg 82%
09:00 +20°C° 0 mm 3 mps 758 mmHg 74%
10:00 +22°C° 0 mm 3 mps 758 mmHg 66%
11:00 +23°C° 0 mm 4 mps 758 mmHg 58%
12:00 +25°C° 0 mm 4 mps 757 mmHg 56%
13:00 +26°C° 0 mm 4 mps 757 mmHg 55%
14:00 +26°C° 0 mm 4 mps 756 mmHg 53%
15:00 +26°C° 0 mm 4 mps 756 mmHg 56%
16:00 +25°C° 0 mm 4 mps 756 mmHg 58%
17:00 +25°C° 0 mm 4 mps 756 mmHg 61%
18:00 +22°C° 0 mm 4 mps 756 mmHg 66%
19:00 +21°C° 0 mm 3 mps 756 mmHg 72%
20:00 +20°C° 0 mm 3 mps 756 mmHg 77%
21:00 +20°C° 0 mm 3 mps 756 mmHg 80%
22:00 +19°C° 0 mm 3 mps 756 mmHg 82%
23:00 +19°C° 0 mm 3 mps 756 mmHg 85%
Show more